This is the latest recevied weather packets stored in our database for station/object N9WHM. If no packets are shown the sender has not sent any weather packets the latest 10 day(s).
| Time | Temp. | Humidity | Pressure | Rain* | Wind** | Luminosity | Snow |
|---|---|---|---|---|---|---|---|
| 1778144099 | 4.44° C | 60% | 1012.3 hPa | 0 mm | - | 0 W/m² | - |
| 1778143796 | 4.44° C | 59% | 1012.1 hPa | 0 mm | - | 0 W/m² | - |
| 1778143493 | 4.44° C | 59% | 1012.1 hPa | 0 mm | - | 0 W/m² | - |
| 1778143190 | 4.44° C | 58% | 1012.1 hPa | 0 mm | - | 0 W/m² | - |
| 1778142886 | 4.44° C | 59% | 1012.5 hPa | 0 mm | - | 0 W/m² | - |
| 1778142583 | 4.44° C | 57% | 1012.4 hPa | 0 mm | - | 0 W/m² | - |
| 1778142279 | 4.44° C | 58% | 1012.2 hPa | 0 mm | - | 0 W/m² | - |
| 1778141975 | 5° C | 57% | 1012.2 hPa | 0 mm | - | 0 W/m² | - |
| 1778141672 | 5° C | 57% | 1012.4 hPa | 0 mm | - | 0 W/m² | - |
| 1778141369 | 4.44° C | 57% | 1012.2 hPa | 0 mm | - | 0 W/m² | - |
| 1778141065 | 4.44° C | 57% | 1012.3 hPa | 0 mm | - | 0 W/m² | - |
| 1778140760 | 4.44° C | 57% | 1012.5 hPa | 0 mm | - | 0 W/m² | - |
| 1778140457 | 4.44° C | 57% | 1012.6 hPa | 0 mm | - | 0 W/m² | - |
| 1778140154 | 4.44° C | 57% | 1012.6 hPa | 0 mm | - | 0 W/m² | - |
| 1778139850 | 5° C | 56% | 1012.5 hPa | 0 mm | - | 0 W/m² | - |
| 1778139548 | 5° C | 58% | 1012.8 hPa | 0 mm | - | 0 W/m² | - |
| 1778139244 | 5° C | 58% | 1012.8 hPa | 0 mm | - | 0 W/m² | - |
| 1778138941 | 5° C | 54% | 1012.9 hPa | 0 mm | - | 0 W/m² | - |
| 1778138639 | 5.56° C | 57% | 1013.1 hPa | 0 mm | - | 0 W/m² | - |
| 1778138336 | 5.56° C | 52% | 1013.2 hPa | 0 mm | - | 0 W/m² | - |
| 1778138033 | 5.56° C | 54% | 1013.1 hPa | 0 mm | - | 0 W/m² | - |
| 1778137729 | 5° C | 57% | 1013.2 hPa | 0 mm | - | 0 W/m² | - |
| 1778137427 | 5.56° C | 55% | 1013.5 hPa | 0 mm | - | 0 W/m² | - |
| 1778137124 | 5.56° C | 55% | 1013.4 hPa | 0 mm | - | 0 W/m² | - |
| 1778136820 | 6.11° C | 53% | 1013.5 hPa | 0 mm | - | 0 W/m² | - |
* Rain latest hour (hover to see other rain measurements)
** Current wind speed in m/s (hover to see current wind gust speed)